Terug naar catalogus

NEONSAT-1A

ActiefWetenschapSSO
NORAD 67614·PAYLOAD·🇰🇷 South Korea

Gelanceerd Jan 30, 2026 vanaf Rocket Lab Launch Complex 1

Loading…

Volgende Passages (komende 24 uur)

TLE

VersSource: Space-Track

Epoch: Sep 14, 2026, 13:52 UTC

1 67614U 26019A   26257.57838701  .00001797  00000-0  11796-3 0  9994
2 67614  97.4358  14.8679 0011584 242.2419 117.7636 15.08830382 34297

Volg NEONSAT-1A in realtime met AllMySat

Download on the App Store